Weather Roundup
Issued by NWS Corpus Christi, TX

Home | Current Version | Previous Version | Text Only | Print | Product List | Glossary On
Versions: 1 2 3 4 5 6 7 8 9 10 11 12 13 14 15 16 17 18 19 20 21 22 23 24 25 26 27 28 29 30 31 32 33 34 35 36 37 38 39 40 41 42 43 44 45 46 47 48 49 50
000
ASUS44 KCRP 301810
HRRCRP

SOUTH TEXAS REGIONAL WEATHER ROUNDUP
NATIONAL WEATHER SERVICE CORPUS CHRISTI TX
100 PM CDT THU OCT 30 2014


TXZ229>244-301900-
...CORPUS CHRISTI AREA OBSERVATIONS...

CITY           SKY/WX    TMP DP  RH WIND       PRES   REMARKS
CORPUS CHRISTI PTSUNNY   82  69  64 NE8       30.08F
NAS CORPUS CHR MOSUNNY   82  72  71 NE10      30.08F
ROCKPORT       SUNNY     82  71  69 E12       30.08F
KINGSVILLE NAS MOSUNNY   83  70  64 CALM      30.07F
ALICE          MOSUNNY   84  68  58 E7        30.08F
FALFURRIAS     MOSUNNY   82  67  60 CALM      30.08F
$$

...VICTORIA AREA OBSERVATIONS...

CITY           SKY/WX    TMP DP  RH WIND       PRES   REMARKS
VICTORIA       MOSUNNY   81  65  58 VRB3      30.11F
BEEVILLE       PTSUNNY   82  67  59 CALM      30.09F
PLEASANTON     SUNNY     82  63  52 E5        30.11F
SAN ANTONIO    MOSUNNY   79  62  56 VRB5      30.12F
$$

...LAREDO AREA OBSERVATIONS...

CITY           SKY/WX    TMP DP  RH WIND       PRES   REMARKS
LAREDO         SUNNY     85  63  47 SE8       30.10F
COTULLA        SUNNY     84  63  49 S7        30.09F
DEL RIO        SUNNY     80  65  59 SE9       30.09F
MCALLEN        MOSUNNY   85  67  54 CALM      30.08F
HEBBRONVILLE   MOSUNNY   81  63  53 SE5       30.10F
$$

...OTHER TEXAS OBSERVATIONS...

CITY           SKY/WX    TMP DP  RH WIND       PRES   REMARKS
BROWNSVILLE    PTSUNNY   86  66  51 MISG      30.07F
HOUSTON        MOSUNNY   74  51  44 E3        30.13F
COL. STATION   SUNNY     73  48  41 CALM      30.14F
AUSTIN         MOSUNNY   75  58  55 CALM      30.13F
WACO           PTSUNNY   70  48  45 S8        30.15F
FORT WORTH     MOSUNNY   74  47  38 S8        30.13F
WICHITA FALLS  PTSUNNY   76  57  51 SW7       30.12F
LUBBOCK        SUNNY     71  49  45 NE16G25   30.18S
EL PASO        SUNNY     73  40  30 N9        30.23F
$$

...MARINE OBSERVATIONS...

STATION/POSITION TIME  SKY/WX   TEMP    WIND        PRES    VSBY  WAVE   SWELL
                                AIR SEA DIR/SP/G                  HT/PER HT/PER
                 (UTC)          (F)     (DEG/KT/KT) (MB)    (MI)  (FT/S) (FT/S)
PORT ARANSAS     1800            77 79   50/  9/  9 1019.5F
BUOY 90 E PORT A 1800            76 79   30/ 12/ 12 1019.1F         2/ 5   2/ 7
BUOY 45 SE BAFFI 1800            79 81   70/  4/  4 1018.1F         1/ 6   2/ 6
BUOY 200 E PT IS 1800            78 81   10/  8/ 10 1017.4F         2/ 7   2/ 7
BUOY 15 E GALVES 1800            70 77   60/ 10/ 12 1019.3F         2/ 5   2/ 5
$$



USA.gov is the U.S. government's official web portal to all federal, state and local government web resources and services.